sat.trackr.live / text

‹ back to catalog

QIANFAN-26

NORAD 61559 · 2024-185H

PAYLOAD ACTIVE UNKNOWN

§ Identity

Operator
Country
PRC
Launch date
2024-10-15
Launch site
TAISC
Launch vehicle
Mass (kg)
RCS (m²)

External: N2YO · Heavens-Above · Gunter

§ Orbital elements

Epoch: 2026-05-25T03:28:43.281696Z

Period
104.51 min
Inclination
88.9838°
Eccentricity
0.0003671
Mean motion
13.77902443 rev/d
Perigee alt
968.6 km
Apogee alt
974.0 km
Semi-major
7,349.5 km
B*
2.0184e-4
RAAN
62.1009°
Arg perigee
224.4243°
Mean anomaly
135.6629°
Rev number
9,117

§ Raw data

QIANFAN-261 61559U 24185H   26145.14494539  .00000215  00000+0  20184-3 0  99982 61559  88.9838  62.1009 0003671 224.4243 135.6629 13.77902443 91178

JSON: /api/v1/satellites/61559 · /tle

For live sub-satellite position, see the globe view (requires WebGL).

§ Visibility from observer

Set your observer location to see the next 7 days of passes ≥ 10°. The values pass through the URL so the page stays shareable.

No JS? Fill the form by hand. The geolocation button needs JavaScript.